User: anonymous   Login
Location: Newark
(43.0000°N, 1.6781°W)
Time: 09:40:11
(UTC+00:00)
Language:

NANOSAT C BR1 - Orbit

View from above orbital plane
View from above orbital plane
View from above satellite
View from above satellite

Ground track
Ground track

The orbit data is extracted from the following two-line orbital elements,

1 40024U 14033Q   22329.82191775  .00002792  00000-0  27556-3 0  9997
2 40024  98.0039 275.7052 0009906 231.1351 128.8984 14.92791872458040
Epoch (UTC): 25 November 2022 19:43:33
Eccentricity: 0.0009906
inclination: 98.0039°
perigee height: 582 km
apogee height: 596 km
right ascension of ascending node: 275.7052°
argument of perigee: 231.1351°
revolutions per day: 14.92791872
mean anomaly at epoch: 128.8984°
orbit number at epoch: 45804

The dashed part of the orbit path shows where the satellite is in the earth's shadow,  

DLR